Location: Hope
(40.9110°N, 74.9680°W)
Time: 14:51:07
(UTC-05:00)

Envisat - Pass Details

Date: 25 January 2019
Orbit: 764 x 766 km, 98.2° (Epoch: 20 February)

Event Time Altitude Azimuth Distance (km) Brightness Sun altitude
Rises 18:15:07 0° 151° (SSE) 3,219 6.1 -12.7°
Reaches altitude 10° 18:17:27 10° 147° (SSE) 2,297 5.3 -13.2°
Maximum altitude 18:22:20 51° 72° (ENE) 960 3.1 -14.1°
Drops below altitude 10° 18:27:15 10° 358° (N) 2,311 5.4 -15.0°
Sets 18:29:37 0° 353° (N) 3,242 6.2 -15.4°
